Theta_e
309 311 313 314 314 314 314 314 314 314 314 314 314 313 313 314 315 319 323 320 319 318 318 322 324 325 325 327 327 326 326 327 327 327 326 325 324 325 326 326 326 327 327 328 328
309 311 312 314 314 314 314 314 314 314 314 314 314 313 313 315 317 321 321 319 317 316 318 320 323 325 326 326 326 327 327 326 327 328 327 326 326 326 326 326 325 326 327 327 325
308 310 311 313 314 314 314 314 314 315 315 314 314 313 314 316 322 325 320 318 317 315 317 320 323 325 326 326 327 328 328 327 327 327 327 326 326 326 326 325 325 325 326 325 325
310 309 311 312 313 313 314 314 314 315 315 314 314 313 314 317 330 322 319 320 320 322 320 322 323 324 326 327 327 329 328 328 327 327 326 326 325 325 325 325 325 325 325 325 326
314 310 310 311 312 313 313 313 313 314 314 315 314 314 315 322 322 321 319 319 320 323 324 324 323 323 324 326 326 327 328 327 327 325 325 325 324 324 324 325 325 325 326 327 330
315 313 311 311 311 313 313 313 314 314 314 314 315 315 318 320 323 322 319 321 321 322 322 324 324 324 324 325 325 326 326 326 326 326 325 324 324 324 325 325 325 327 327 328 328
317 315 313 312 311 313 313 314 314 314 315 315 315 314 318 319 322 324 322 322 323 323 324 323 323 324 324 325 325 325 325 325 325 325 325 325 325 325 324 324 326 328 328 327 326
320 316 314 313 312 313 314 314 314 314 315 315 315 314 318 319 322 319 323 323 323 324 324 325 325 324 325 324 326 326 326 326 326 326 326 325 327 327 328 326 327 329 328 327 326
322 319 315 314 313 313 314 314 314 315 315 316 313 318 319 320 320 322 323 324 325 324 324 324 325 326 326 326 327 328 329 328 329 328 328 327 328 327 327 327 328 328 329 327 326
323 321 317 314 313 313 314 315 315 316 315 314 315 318 319 321 322 323 323 324 326 326 325 325 325 327 327 328 331 330 330 330 330 330 329 328 328 328 329 328 329 329 328 326 325
324 322 319 315 314 314 315 315 315 316 316 315 316 316 320 319 325 324 324 324 324 325 327 327 328 329 328 328 328 330 330 331 331 330 330 330 330 329 329 329 330 329 327 325 325
318 324 321 316 314 314 315 314 314 318 321 316 316 317 318 322 325 324 323 325 326 328 327 328 330 328 328 328 329 330 330 331 330 329 330 330 330 329 329 329 329 327 327 325 324
314 321 322 317 314 315 316 314 317 319 319 318 319 316 317 322 325 326 325 325 327 328 328 329 329 328 328 329 330 330 331 331 331 329 329 330 330 330 329 328 325 326 325 324 323
313 318 321 317 314 315 316 315 315 317 317 316 317 320 317 320 324 323 324 325 327 329 329 330 329 329 329 329 329 331 329 330 329 329 331 329 331 328 326 325 325 325 324 323 321
309 316 318 316 314 316 315 315 316 319 322 318 317 320 319 316 321 323 324 325 327 328 328 330 329 330 331 329 328 329 329 329 329 330 331 329 329 327 326 324 324 323 323 321 320
309 314 320 315 314 315 315 315 317 318 320 322 322 322 323 319 319 323 324 325 326 327 328 328 328 329 329 329 327 327 327 328 328 328 332 328 328 327 327 325 323 322 322 320 319
306 313 317 315 315 314 315 314 316 321 320 324 325 324 324 324 324 323 327 329 331 332 332 329 329 328 327 327 327 327 328 331 332 331 330 326 327 327 325 326 323 323 321 320 319
306 312 316 315 315 315 314 312 319 319 321 324 325 325 327 325 325 325 325 328 329 329 331 333 335 328 326 326 327 327 328 336 335 333 331 326 328 327 324 323 322 321 320 320 320
305 312 315 315 314 314 311 314 320 321 319 321 326 327 328 327 328 327 328 328 328 329 333 333 332 329 328 324 325 327 328 327 331 330 333 328 326 324 322 322 321 320 319 317 314
305 312 315 314 315 311 312 316 318 318 321 319 330 327 330 329 329 330 327 326 329 329 329 331 335 328 327 325 323 325 325 328 328 333 332 328 328 328 325 322 321 319 316 314 312
305 315 315 314 313 312 314 317 318 317 318 323 326 328 328 329 328 328 327 327 327 330 329 330 328 326 324 324 325 324 325 325 327 332 333 328 326 325 325 323 317 315 314 313 310
305 314 313 314 315 312 314 316 316 317 318 322 323 327 328 329 328 326 327 326 327 328 329 329 325 328 325 323 323 323 324 326 332 333 332 332 325 323 323 319 317 315 313 309 307
307 307 312 314 312 310 314 314 316 319 320 321 323 324 325 327 329 327 326 319 322 326 329 326 325 329 325 323 320 322 323 324 326 332 331 335 325 320 320 317 315 314 309 307 305
304 306 306 316 311 312 315 315 317 317 320 322 321 324 325 327 327 329 318 315 318 321 314 318 324 327 330 325 322 322 321 321 324 329 328 326 323 319 317 316 315 309 307 305 304
303 304 307 313 311 312 315 316 318 320 320 321 322 323 325 328 327 328 322 314 314 312 316 322 325 324 323 323 323 322 321 321 322 324 326 324 322 320 318 315 309 306 304 303 302
301 302 307 313 311 313 313 318 318 319 319 320 322 322 324 325 324 326 320 316 316 314 317 320 325 322 325 322 322 324 318 319 321 321 321 321 322 319 316 311 306 303 302 302 301
304 306 310 313 313 314 315 316 319 318 318 318 320 322 322 319 315 315 316 316 316 315 317 318 319 320 326 323 322 318 315 315 317 320 320 320 319 314 311 309 304 302 301 300 300
Wind_Speed
27 25 24 21 19 17 14 12 11 10 10 11 13 14 16 20 24 16 13 7 9 7 7 9 14 15 17 16 16 8 9 12 15 10 4 12 6 6 3 7 8 4 5 5 11
29 27 26 24 21 19 16 13 12 10 11 10 12 14 16 21 24 21 14 11 9 8 8 14 13 13 12 16 13 10 11 18 7 7 4 8 7 6 6 8 10 6 8 5 2
31 29 28 26 23 20 18 15 13 11 11 11 11 12 14 19 13 2 11 7 9 14 14 16 16 14 15 15 16 16 13 17 17 7 4 10 9 9 7 10 11 5 3 2 2
34 32 29 27 25 22 19 16 14 12 11 11 11 12 14 10 5 7 10 8 6 6 12 15 14 16 16 16 17 16 17 15 16 14 10 11 11 13 12 10 11 4 7 7 5
36 34 32 29 26 23 20 18 15 12 11 11 11 10 6 7 16 12 12 9 5 7 11 12 14 15 18 17 17 18 16 17 12 17 10 13 12 13 14 11 8 10 7 3 8
37 35 33 31 28 25 22 18 15 13 11 10 11 9 4 12 6 7 11 11 12 12 12 12 10 14 17 17 16 18 16 13 13 16 13 13 14 13 15 12 5 7 6 6 4
38 37 35 33 29 26 23 19 15 13 10 9 9 6 10 20 9 8 10 12 14 15 13 15 16 14 10 14 15 15 15 15 15 16 16 13 17 19 18 10 9 10 7 5 3
39 38 37 34 31 27 23 19 15 13 10 8 9 7 9 11 14 25 16 14 12 9 10 12 10 12 15 15 13 10 14 15 18 21 19 14 17 16 18 16 11 13 12 9 6
41 39 38 35 32 27 23 18 14 11 9 6 7 9 10 5 20 19 21 21 18 15 13 12 6 12 14 15 14 15 14 18 20 13 7 9 13 20 10 12 12 8 14 13 10
43 42 39 36 33 28 23 16 9 8 8 8 13 9 12 15 17 20 23 23 16 15 12 13 9 12 15 14 15 16 18 15 14 11 9 12 15 14 10 13 15 12 7 13 12
46 44 41 38 35 31 26 11 5 6 17 11 13 15 9 21 10 14 17 17 15 11 16 16 13 18 23 21 22 20 20 14 11 10 15 15 14 13 13 14 13 8 14 12 12
33 43 44 41 39 35 30 11 16 4 6 29 27 21 29 10 11 15 21 16 16 16 17 15 19 22 20 20 22 21 19 18 16 17 13 14 15 15 15 13 10 5 15 14 13
23 49 45 43 40 38 32 29 2 7 6 17 28 24 25 18 14 19 22 22 19 20 18 20 19 23 21 21 21 20 17 15 16 14 15 14 16 18 19 19 7 8 14 14 13
32 43 46 42 34 32 31 28 12 3 5 12 19 20 27 19 18 25 27 22 16 19 20 20 21 20 13 20 20 19 14 15 15 14 13 14 12 11 9 10 11 13 14 13 12
33 39 50 56 30 28 33 24 11 1 6 10 29 14 18 25 12 24 29 23 25 22 17 21 22 21 22 18 17 18 13 13 11 13 12 17 11 13 13 15 16 14 13 12 11
32 33 51 48 24 39 35 21 8 5 14 7 10 23 21 28 31 8 25 26 19 23 22 22 20 20 21 20 17 12 8 12 10 10 13 18 14 12 11 21 19 17 15 13 10
34 34 58 43 19 44 42 15 6 9 6 14 11 22 25 24 26 27 17 23 23 20 21 22 25 19 13 14 16 16 10 5 9 8 11 15 13 16 6 15 24 19 16 13 9
31 32 55 35 42 50 39 13 8 15 27 4 17 23 24 22 26 28 23 23 29 25 13 19 21 26 17 20 17 20 18 6 6 9 7 9 7 5 14 16 19 17 15 12 9
32 27 38 29 54 52 19 14 17 19 29 16 18 21 24 24 13 27 26 22 25 28 22 18 25 14 26 17 19 17 19 16 15 13 9 8 6 5 13 13 17 17 14 11 8
21 16 29 38 50 40 17 17 15 20 18 30 22 21 23 27 21 24 20 20 24 30 24 13 14 10 16 14 20 21 13 12 8 7 9 10 18 9 19 17 16 14 12 9 6
16 6 21 55 40 18 15 16 13 18 21 13 22 19 25 25 24 26 14 12 28 29 25 21 10 12 13 12 14 10 16 13 9 9 3 3 4 4 19 17 15 12 8 6 5
6 5 35 55 10 12 17 19 21 21 16 11 6 22 23 24 25 22 23 16 24 22 30 20 7 10 21 15 19 19 18 18 9 10 11 6 3 6 14 14 12 10 9 6 5
4 2 22 39 12 16 11 17 15 18 15 15 15 11 10 5 13 21 22 7 15 16 19 13 6 6 12 13 9 15 16 17 14 3 12 7 4 11 15 13 12 10 7 4 0
4 2 3 12 9 21 19 20 16 15 14 13 9 1 4 9 6 6 6 4 5 5 9 2 7 11 10 11 11 19 21 19 19 12 12 15 9 14 15 16 13 7 6 3 3
3 3 4 15 14 21 24 21 27 12 18 20 14 13 12 8 5 11 5 5 1 6 2 1 6 13 18 16 8 10 14 24 24 19 15 14 19 13 17 8 6 6 2 3 6
5 3 3 16 20 18 24 15 32 22 20 24 17 18 14 7 7 7 7 5 4 4 2 5 1 6 12 17 18 14 20 19 24 22 20 18 17 13 9 4 4 3 4 6 9
5 3 3 15 19 17 19 28 28 26 18 22 18 11 11 2 10 10 8 8 4 7 3 4 4 3 5 13 10 13 18 19 19 20 17 18 12 4 5 5 4 5 7 8 11
Wind_Direction
227 226 227 228 229 231 236 243 251 265 281 294 306 316 318 317 312 303 260 243 189 206 219 257 233 233 243 257 260 271 264 263 252 208 229 120 160 162 275 275 249 186 316 28 90
226 226 226 227 228 231 233 238 250 261 275 290 303 315 321 322 314 280 250 231 219 221 224 236 241 230 236 242 248 224 250 248 342 7 324 139 157 248 230 232 242 243 214 175 147
226 224 225 226 226 227 231 234 244 257 272 287 299 310 316 322 300 189 185 222 233 227 227 252 252 242 237 247 240 235 242 280 307 32 274 289 279 258 230 254 256 293 183 68 332
226 224 223 224 225 224 227 230 237 252 268 286 299 312 315 316 288 138 153 160 176 182 212 235 251 252 245 248 252 252 252 262 291 300 294 258 267 265 260 263 293 46 36 15 329
228 224 223 221 222 224 224 228 233 245 265 286 303 319 342 242 253 170 175 174 211 223 226 226 233 241 249 244 255 267 252 260 286 288 263 274 262 267 272 284 287 88 69 37 44
229 225 222 221 220 219 222 226 231 237 253 274 297 314 241 253 255 176 192 205 233 234 243 254 242 251 261 262 260 269 271 270 286 269 259 262 260 254 249 241 107 99 139 117 92
226 226 222 220 217 217 217 220 227 238 250 274 288 302 260 240 266 216 222 224 230 233 243 243 254 265 270 265 269 273 277 280 260 254 259 255 257 252 245 214 172 159 165 132 119
228 225 222 219 214 213 213 215 221 234 249 272 286 281 252 237 257 245 233 226 228 236 251 280 266 266 264 271 262 258 260 258 257 240 233 216 258 267 219 171 178 194 159 158 102
228 226 221 217 214 206 207 207 212 233 248 261 282 229 260 261 225 228 222 229 228 226 234 250 248 251 247 246 255 247 249 248 251 216 190 181 253 238 141 158 202 207 166 154 122
226 224 219 215 209 201 194 190 204 237 243 247 254 277 247 236 227 223 222 225 228 219 215 229 227 236 229 231 233 234 235 227 249 156 222 212 228 268 193 194 227 186 173 135 131
232 222 216 210 203 191 174 144 191 217 223 212 190 223 302 217 177 198 192 198 198 198 213 208 218 225 227 221 248 263 283 284 255 203 191 217 225 242 262 261 250 205 137 142 127
229 229 215 204 196 188 178 192 201 30 232 223 245 241 263 297 200 210 181 197 197 205 208 222 222 236 240 241 238 238 250 264 275 282 293 284 274 275 269 252 240 223 141 136 129
252 225 214 200 190 183 192 198 21 353 256 246 218 232 238 224 227 211 198 212 200 204 214 221 230 223 238 241 242 249 251 253 257 278 287 292 269 259 251 247 160 127 129 132 147
239 217 210 189 175 182 198 200 231 11 266 245 214 225 226 224 233 244 192 208 229 218 218 239 236 250 230 238 246 242 234 254 260 260 259 265 267 261 132 143 167 132 130 147 136
241 217 194 182 170 186 183 190 177 188 257 188 211 174 191 197 148 217 226 205 232 224 230 240 241 240 236 235 245 249 255 259 267 280 272 260 261 255 191 164 153 140 140 137 147
247 225 202 180 178 174 170 151 149 162 235 242 149 181 187 200 218 247 206 231 224 241 242 242 253 236 238 229 240 253 255 258 251 259 253 248 251 261 238 171 158 157 145 129 134
236 227 189 177 171 162 153 128 123 208 184 212 166 180 194 196 208 214 193 208 211 212 229 239 237 243 233 237 227 219 196 231 220 219 238 245 239 227 81 171 149 150 145 138 144
226 226 195 178 163 150 145 144 198 212 218 166 162 182 198 192 204 207 203 215 212 215 216 220 229 223 194 221 215 206 208 208 226 234 255 335 225 85 83 117 128 137 139 145 149
221 234 200 184 162 149 147 178 208 204 201 233 173 195 200 198 187 207 208 220 212 210 215 202 226 232 217 198 227 193 217 227 264 280 281 251 95 109 130 120 129 136 148 136 113
207 226 202 172 160 153 162 203 216 220 188 212 199 198 195 195 198 196 196 218 213 203 215 238 222 211 179 200 214 240 201 213 229 234 234 229 227 208 166 159 152 152 142 131 126
196 220 173 166 159 162 189 206 201 220 242 227 213 214 212 194 200 192 205 214 201 192 214 229 225 196 154 200 186 205 236 236 210 217 240 255 195 29 150 159 152 148 138 168 89
189 204 164 161 165 187 200 194 207 210 235 240 255 235 225 203 194 202 220 198 189 185 207 209 232 216 210 200 218 223 216 225 223 210 220 232 139 109 140 143 151 157 196 91 54
187 186 184 173 174 193 177 205 208 212 191 226 220 229 271 253 204 215 208 354 193 194 194 182 211 197 193 215 210 232 230 214 231 152 225 208 163 138 134 146 177 195 105 96 187
154 180 177 194 182 182 181 191 202 226 200 215 223 315 243 239 257 241 122 20 336 126 64 64 207 216 216 210 194 218 231 231 215 227 215 224 191 159 167 184 198 105 77 26 310
150 227 237 183 179 188 196 177 187 175 216 213 207 203 200 216 224 232 105 122 308 51 50 49 242 238 247 249 220 284 247 226 239 223 219 226 230 220 190 179 97 77 37 312 321
147 189 255 170 170 176 195 191 190 198 178 215 214 195 199 208 198 184 99 167 147 118 183 51 21 306 269 263 263 251 249 247 227 242 242 244 237 259 292 357 77 20 325 345 330
130 172 256 169 171 177 190 201 202 191 221 210 212 177 201 171 71 67 72 80 81 139 96 112 148 172 238 237 254 267 237 250 249 224 241 238 246 227 296 295 12 23 5 323 315